DW1053 Weather Reports


Display with metric or nautical units.
time (UTC)temp
F
wind
direction
speed
MPH
gust
MPH
rain 1hr
in
rain 24hr
in
rain mn
in
humidity
%
barometer
mb
20260503050207 56 125 0.0 1.0 0.00 0.00 0.00 75 1011.1
20260503040208 56 125 0.0 1.0 0.00 0.00 0.00 76 1011.0
20260503030209 56 132 0.0 0.0 0.00 0.00 0.00 76 1011.0
20260503020207 58 155 0.0 0.0 0.00 0.00 0.00 74 1011.1
20260503010209 58 198 0.0 1.0 0.00 0.00 0.00 73 1011.7
20260503000208 59 198 0.0 0.0 0.00 0.00 0.00 69 1012.2
20260502230205 60 201 0.0 0.0 0.00 0.00 0.00 63 1012.2
20260502210207 64 207 0.0 0.0 0.00 0.00 0.00 57 1012.5
20260502200207 66 213 0.0 0.0 0.00 0.00 0.00 50 1012.4
20260502190207 70 215 0.0 1.0 0.00 0.00 0.00 44 1012.4
20260502180208 74 313 0.0 2.0 0.00 0.00 0.00 41 1012.0
20260502170207 77 92 0.0 1.0 0.00 0.00 0.00 31 1012.1
20260502150207 78 335 0.0 2.0 0.00 0.00 0.00 27 1013.2
20260502130206 81 335 0.0 1.0 0.00 0.00 0.00 27 1015.1
20260502120206 78 68 0.0 4.0 0.00 0.00 0.00 32 1015.8
20260502110225 77 98 0.0 1.0 0.00 0.00 0.00 33 1016.7
20260502100206 76 114 0.0 1.0 0.00 0.00 0.00 33 1017.6
20260502090223 70 121 0.0 1.0 0.00 0.00 0.00 36 1018.1
20260502070205 57 119 0.0 2.0 0.00 0.00 0.00 53 1018.4
20260502060206 52 126 0.0 5.0 0.00 0.00 0.00 60 1018.1